{"data":{"norad_id":48316,"epoch":"2026-09-20T00:41:23.705376Z","epoch_age_seconds":74452,"freshness":"FRESH","line1":"1 48316U 21036AS  26263.02874659  .00003829  00000+0  13509-3 0  9996","line2":"2 48316  53.1572 274.5003 0001805  76.8109 283.3094 15.31703759297832","mean_motion":15.31703759,"eccentricity":0.0001805,"inclination_deg":53.1572,"raan_deg":274.5003,"arg_perigee_deg":76.8109,"mean_anomaly_deg":283.3094,"bstar":0.00013509,"rev_number":29783,"period_min":94.012957240513,"perigee_km":469.49256959009,"apogee_km":471.96501014024,"semimajor_km":6848.8657898652,"source":"CELESTRAK","updated_at":"2026-09-20T09:00:38.934934Z"}}